Weather History for Point Salines Airport, Grenada

Change the Weather History Date:

Wednesday, October 3, 2012

  Actual Average Record
Temperature  
Mean Temperature 83 °F -  
Max Temperature 90 °F 85 °F - ()
Min Temperature 76 °F 76 °F - ()
Cooling Degree Days 18    
Growing Degree Days 33 (Base 50)    
Moisture  
Dew Point 78 °F    
Average Humidity 85    
Maximum Humidity 94    
Minimum Humidity 67    
Precipitation  
Precipitation 0.08 in - - ()
Sea Level Pressure  
Sea Level Pressure 29.91 in    
Wind  
Wind Speed 6 mph ()    
Max Wind Speed 13 mph    
Max Gust Speed -    
Visibility 6.9 miles    
Events Rain , Thunderstorm    
T = Trace of Precipitation, MM = Missing Value Source: Averaged Metar Reports

Daily Weather History Graph

Daily Weather History Graph

Search for Another Location

Airport:

Trip Planner

Search our weather history database for the weather conditions in past years. The results will help you decide how hot, cold, wet, or windy it might be!

Date:

Astronomy

Oct. 03, 2012 Rise Set
Actual Time 5:56 AM AST 5:55 PM AST
Civil Twilight 5:35 AM AST 6:16 PM AST
Nautical Twilight 5:10 AM AST 6:41 PM AST
Astronomical Twilight 4:45 AM AST 7:05 PM AST
Moon 8:26 PM AST (10/3) 8:35 AM AST (10/3)
Length of Visible Light 12h 41m
Length of Day
11h 59m
Waning Gibbous, 89% of the Moon is Illuminated
Oct 3
Waning Gibbous
Oct 8
Last Quarter
Oct 15
New
Oct 21
First Quarter
Oct 29
Full

Hourly Weather History & Observations

Time (AST) Temp. Heat Index Dew Point Humidity Pressure Visibility Wind Dir Wind Speed Gust Speed Precip Events Conditions
12:00 AM 78.8 °F - 77.0 °F 94% 29.92 in 5.0 mi East 5.8 mph - N/A Rain Light Rain Showers
1:00 AM 78.8 °F - 77.0 °F 94% 29.89 in 5.0 mi Variable 2.3 mph - N/A Rain Light Rain Showers
2:00 AM 80 °F - 76 °F 83% 29.90 in 6 mi East 5.8 mph - -   Partly Cloudy
2:00 AM 80.6 °F 86.2 °F 75.2 °F 84% 29.89 in 6.2 mi East 5.8 mph - N/A   Mostly Cloudy
3:00 AM 80.6 °F 86.2 °F 75.2 °F 84% 29.89 in 6.2 mi East 6.9 mph - N/A   Scattered Clouds
4:00 AM 78.8 °F - 77.0 °F 94% 29.86 in 5.0 mi East 11.5 mph - N/A Rain Light Rain Showers
5:00 AM 80 °F - 76 °F 85% 29.90 in 7 mi East 6.9 mph - -   Widespread Dust
5:00 AM 80.6 °F 87.1 °F 77.0 °F 89% 29.89 in 6.2 mi East 6.9 mph - N/A   Partly Cloudy
6:00 AM 80.6 °F 87.1 °F 77.0 °F 89% 29.92 in 6.2 mi East 5.8 mph - N/A   Partly Cloudy
7:00 AM 82.4 °F 90.9 °F 77.0 °F 84% 29.92 in 6.2 mi Variable 2.3 mph - N/A   Partly Cloudy
8:00 AM 85 °F - 79 °F 78% 29.95 in 12 mi East 3.5 mph - -   Scattered Clouds
8:00 AM 84.2 °F 96.1 °F 78.8 °F 84% 29.95 in 6.2 mi East 3.5 mph - N/A   Partly Cloudy
9:00 AM 87.8 °F 102.5 °F 78.8 °F 75% 29.95 in 6.2 mi East 9.2 mph - N/A   Partly Cloudy
10:00 AM 89.6 °F 108.2 °F 80.6 °F 75% 29.95 in 6.2 mi East 11.5 mph - N/A   Mostly Cloudy
11:00 AM 89 °F - 79 °F 67% 29.96 in 14 mi East 11.5 mph - -   Widespread Dust
11:00 AM 87.8 °F 102.5 °F 78.8 °F 75% 29.95 in 6.2 mi East 11.5 mph - N/A   Mostly Cloudy
12:00 PM 87.8 °F 102.5 °F 78.8 °F 75% 29.95 in 6.2 mi East 12.7 mph - N/A   Mostly Cloudy
1:00 PM 86.0 °F 99.3 °F 78.8 °F 79% 29.92 in 6.2 mi East 10.4 mph - N/A   Scattered Clouds
2:00 PM 80 °F - 77 °F 89% 29.90 in 9 mi East 5.8 mph - - Rain Light Rain Showers
2:00 PM 80.6 °F 87.1 °F 77.0 °F 89% 29.89 in 6.2 mi East 9.2 mph - N/A Rain Light Rain Showers
3:00 PM 82.4 °F 92.4 °F 78.8 °F 89% 29.89 in 6.2 mi East 11.5 mph - N/A   Mostly Cloudy
4:00 PM 82.4 °F 92.4 °F 78.8 °F 89% 29.86 in 6.2 mi ESE 5.8 mph - N/A   Mostly Cloudy
5:00 PM 82 °F - 79 °F 87% 29.88 in 9 mi East 10.4 mph - -   Widespread Dust
5:00 PM 82.4 °F 92.4 °F 78.8 °F 89% 29.86 in 6.2 mi East 10.4 mph - N/A   Mostly Cloudy
6:00 PM 80.6 °F 87.1 °F 77.0 °F 89% 29.89 in 6.2 mi East 6.9 mph - N/A   Mostly Cloudy
7:00 PM 80.6 °F 87.1 °F 77.0 °F 89% 29.89 in 6.2 mi ESE 6.9 mph - N/A Thunderstorm Mostly Cloudy
8:00 PM 82 °F - 79 °F 87% 29.91 in 9 mi ESE 6.9 mph - -   Partly Cloudy
8:00 PM 82.4 °F 92.4 °F 78.8 °F 89% 29.92 in 6.2 mi ESE 6.9 mph - N/A Thunderstorm Mostly Cloudy
9:00 PM 82.4 °F 92.4 °F 78.8 °F 89% 29.92 in 6.2 mi ESE 9.2 mph - N/A Thunderstorm Mostly Cloudy
10:00 PM 82.4 °F 92.4 °F 78.8 °F 89% 29.92 in 6.2 mi ESE 8.1 mph - N/A   Mostly Cloudy
11:00 PM 81 °F - 78 °F 88% 29.92 in 9 mi East 5.8 mph - -   Widespread Dust
11:00 PM 80.6 °F 88.1 °F 78.8 °F 94% 29.92 in 6.2 mi East 5.8 mph - N/A   Mostly Cloudy